STARLINK-5928 (55958 NORAD) Tracking and Keplerian Element Data

This shows tracking and keplerian element data for the satellite.

Feedback or suggestion? Click here.




ElementValue
Catalog55958
NameSTARLINK-5928
Epoch Orbit840
Epoch Day126.92998883
Epoch Year2023
RAAN40.0253
Inclination70.003
Eccentricity0.000371
Argument of Perigee263.947
Mean Anonmoly96.1303
Mean Motion15.69922572
Decay Rate2.9E-06
L11 55958U 23037AW 23126.92998883 .00000290 00000+0 41796-5 0 9999
L22 55958 70.0030 40.0253 0003710 263.9470 96.1303 15.69922572 8402



Live tracking and technical data element details for STARLINK-5928 (NORAD 55958). STARLINK-5928 can be tracked NOW for your location showing map with azimuth and elevation plus other details from your city location.







IsCatalogInMostPopularTable: catalog: 55958, numindb: 12
Update: records affected: 1



GetName: 55958 STARLINK-5928

Hit Count: updated at: Tue, 06 Jun 2023 02:13:27 GMT